Wind_Speed
15 17 16 13 16 13 13 13 14 14 15 20 18 16 17 21 27 32 32 38 35 33 31 29 36 35 35 45 34 17 5 2 3 1 4 6 4 4 4 7 12 12 14
22 14 11 13 8 9 9 9 12 15 13 19 17 19 17 20 26 28 31 35 35 33 39 38 29 28 27 27 36 37 15 7 5 3 4 6 5 3 5 4 9 11 14
17 5 8 8 8 8 6 7 7 14 13 15 16 16 20 20 20 26 29 31 32 33 39 37 38 40 30 36 32 32 19 6 8 6 5 6 7 5 8 5 7 10 13
11 10 6 6 6 6 6 6 6 8 10 12 13 11 12 16 17 25 27 26 28 30 37 38 36 37 41 35 33 34 27 7 7 6 7 5 7 8 10 7 7 9 12
8 9 10 8 5 4 3 0 4 6 7 9 13 10 11 16 19 22 24 24 26 28 33 33 33 36 38 38 41 32 28 20 2 10 9 7 10 10 11 9 8 8 10
14 10 11 10 8 7 4 2 4 6 6 8 8 11 11 13 17 22 22 21 22 29 28 30 32 35 34 35 40 40 29 25 7 6 10 11 11 10 11 11 10 8 8
17 15 14 13 14 13 10 8 6 6 5 6 9 8 10 13 18 20 23 19 19 23 27 29 32 34 31 31 37 39 34 22 17 4 6 11 12 9 11 11 9 8 5
22 18 16 19 19 16 15 12 12 10 9 9 9 5 5 10 19 18 17 20 19 22 23 26 31 31 28 30 32 36 36 27 17 10 5 5 8 8 8 10 9 7 6
24 20 21 17 15 16 17 18 16 13 13 11 12 5 5 8 14 12 14 14 18 26 22 27 30 27 27 27 27 31 34 29 22 13 6 6 4 6 8 6 8 7 7
28 27 26 24 21 19 16 16 17 15 13 16 15 10 2 4 9 13 11 12 12 17 19 27 27 23 20 22 24 27 29 30 25 19 10 6 2 3 2 4 6 8 6
29 26 25 25 23 22 23 21 20 19 17 19 19 14 12 6 10 13 14 15 16 17 20 22 22 19 17 19 21 23 24 29 27 24 19 11 5 6 4 2 4 4 2
32 30 30 29 28 28 28 26 24 23 20 21 22 19 14 12 13 16 18 18 20 21 21 22 20 16 16 13 15 20 21 22 27 28 23 19 14 10 8 6 4 4 3
30 31 31 31 30 30 30 29 27 25 23 22 22 21 22 22 22 22 21 22 23 23 24 22 21 16 14 12 10 12 16 18 19 23 27 24 20 15 11 8 7 4 2
31 29 27 27 27 26 27 27 28 26 24 24 24 24 26 26 26 27 26 25 24 23 23 21 24 20 15 12 9 10 13 14 13 16 19 22 24 23 17 13 12 8 5
28 29 31 28 26 25 25 25 27 28 26 27 27 25 30 30 28 29 30 32 26 27 27 26 24 22 17 14 10 12 11 9 10 14 15 14 17 20 19 16 6 10 9
32 31 28 30 29 24 23 25 24 27 30 33 33 33 33 33 33 33 32 33 32 31 29 30 28 23 19 19 16 17 13 10 7 9 10 13 13 13 13 15 14 12 12
21 27 33 30 31 33 30 30 28 28 31 29 31 32 33 33 34 35 34 33 33 31 31 32 30 25 25 20 21 20 17 15 13 13 10 9 9 10 8 8 9 10 8
15 17 20 27 34 33 34 37 35 34 34 33 32 34 34 36 36 37 37 37 37 37 37 36 33 30 28 26 23 26 29 26 17 14 14 13 13 11 7 7 6 4 4
14 15 17 17 19 22 27 33 35 36 36 35 35 35 36 37 38 41 41 40 41 43 44 43 39 38 37 33 29 30 32 28 22 21 17 17 19 17 11 10 12 11 8
15 16 17 20 17 17 19 21 22 23 27 29 28 30 28 31 30 31 33 36 38 41 42 43 42 39 38 37 32 35 36 32 30 24 23 23 21 20 19 18 15 14 12
13 14 16 15 18 18 16 17 18 20 22 22 24 26 26 29 31 31 32 35 38 40 40 42 41 37 35 34 36 36 35 34 32 31 29 28 26 25 27 26 24 24 22
13 11 12 12 13 14 16 14 13 12 14 17 18 17 17 16 17 14 12 11 12 14 16 22 26 34 38 34 33 34 36 38 39 38 35 33 33 33 34 33 33 31 31
10 11 10 12 10 9 9 8 5 4 2 5 6 9 13 18 18 10 6 5 12 15 18 15 7 10 20 31 30 30 35 37 39 40 38 39 39 39 39 39 39 40 39
16 11 10 13 12 6 8 16 15 12 16 21 21 23 21 18 18 18 15 6 9 12 14 15 13 14 11 6 19 30 33 34 34 34 34 35 40 39 40 39 37 36 38
19 16 11 18 17 11 22 18 16 15 16 14 16 16 16 18 17 14 12 9 11 11 9 11 14 10 8 7 9 9 11 18 26 31 34 34 35 38 35 35 34 34 33
31 25 30 27 25 17 25 21 16 12 10 12 14 21 24 21 25 19 17 17 15 19 18 15 18 15 11 13 12 10 13 13 9 10 18 17 22 34 36 35 33 27 23
Wind_Direction
143 126 105 92 102 128 120 85 68 45 46 68 57 55 52 60 49 41 39 45 43 42 43 27 29 39 26 23 27 16 296 209 345 356 198 167 156 158 111 61 62 63 61
133 130 126 77 116 115 153 100 64 54 59 48 55 53 49 47 44 37 44 48 45 47 39 39 33 19 29 15 2 1 353 293 185 229 178 161 149 156 150 95 71 67 62
159 153 86 71 126 114 120 83 72 54 71 42 49 66 59 50 42 43 41 39 39 39 33 32 32 32 24 35 17 8 11 337 241 177 183 185 184 176 166 131 79 75 66
186 178 177 96 106 105 133 93 78 65 51 43 47 50 37 36 29 25 40 42 32 32 21 22 27 28 26 23 22 19 11 17 232 184 195 171 170 165 165 146 103 87 76
178 187 204 202 174 142 163 287 24 15 42 45 43 38 24 29 25 19 31 40 36 28 28 24 25 23 22 23 22 22 15 15 227 222 169 155 147 155 164 150 129 101 88
194 189 194 224 214 221 211 293 356 343 32 52 38 25 13 6 9 15 20 35 36 25 19 28 23 23 22 24 23 24 26 19 34 190 173 153 147 156 169 163 145 123 99
205 221 225 209 223 230 234 239 294 328 315 6 23 25 8 6 15 18 25 20 21 14 14 17 20 21 30 29 25 29 29 29 36 119 183 164 146 137 165 169 164 154 131
222 236 231 230 223 223 239 252 263 291 281 308 318 333 350 2 7 360 2 2 352 359 5 7 12 19 24 31 33 30 32 29 39 62 100 167 161 149 166 168 170 170 173
227 233 235 230 229 234 240 253 258 272 277 276 294 301 350 18 358 343 8 349 356 350 360 359 2 7 18 22 35 33 35 31 38 47 80 147 137 149 168 168 187 174 185
234 236 234 237 234 236 245 253 257 264 267 262 276 275 306 323 294 318 345 335 328 338 329 338 352 1 16 20 31 36 32 38 39 51 66 122 108 90 182 197 184 193 189
230 232 236 234 240 248 259 264 262 265 263 266 269 282 279 306 291 311 322 326 316 313 321 335 349 2 13 25 31 34 36 39 46 45 57 80 81 59 57 136 167 184 206
240 239 241 244 246 251 258 260 260 264 270 259 262 271 275 289 298 299 298 302 313 315 316 326 333 347 1 19 28 36 42 41 40 45 49 60 72 79 74 84 146 202 259
241 243 245 249 251 252 254 258 260 263 261 260 258 265 276 287 290 291 291 299 303 304 309 314 325 324 337 352 15 21 31 32 35 36 44 49 56 63 69 71 67 71 101
250 252 250 249 252 255 258 257 259 258 259 258 260 262 269 277 281 288 292 290 297 297 299 302 316 320 317 324 349 348 359 19 29 33 37 45 51 56 56 62 60 61 75
245 250 255 251 251 253 255 256 258 258 260 258 256 256 260 269 276 270 272 277 280 286 290 293 308 307 305 303 307 326 330 6 20 37 31 28 35 45 52 54 40 52 62
247 248 252 247 247 248 252 250 255 258 259 259 261 260 262 266 266 270 268 265 270 280 286 286 288 290 299 289 285 300 308 328 352 358 11 13 17 22 36 47 54 59 58
255 249 248 249 247 246 245 253 257 259 261 262 262 269 269 269 267 268 270 269 270 272 274 276 280 286 288 272 280 279 294 298 312 324 328 339 356 12 2 22 35 46 55
269 264 254 249 248 247 249 252 256 264 262 263 266 263 264 267 271 270 269 269 268 266 269 266 264 267 273 270 264 273 277 294 283 297 304 305 308 321 337 330 334 339 5
289 282 269 258 256 259 258 257 257 257 261 261 268 268 266 267 269 270 271 270 269 268 270 270 268 267 268 264 266 272 268 277 277 283 284 297 297 297 296 287 293 298 289
296 278 275 269 263 255 256 258 255 257 261 264 271 274 269 270 273 275 274 273 273 273 270 266 262 261 262 260 255 237 262 265 267 272 277 278 285 286 289 291 292 290 278
306 283 274 269 263 267 269 267 267 263 267 273 279 283 280 277 281 279 281 281 281 279 275 266 259 256 252 258 252 249 254 259 259 266 269 271 276 282 284 279 283 285 280
280 292 285 274 267 269 267 271 280 288 291 283 289 294 293 292 295 299 298 306 306 308 306 286 271 254 249 249 250 248 250 253 261 263 265 268 270 276 278 279 279 282 283
269 292 295 284 283 276 268 256 229 224 123 43 21 25 23 10 2 354 347 12 38 42 37 28 353 273 253 245 249 250 250 253 258 260 263 268 270 271 274 277 278 281 282
234 235 296 310 290 258 177 149 137 127 75 53 49 40 31 25 13 356 354 12 37 35 32 35 41 57 39 298 260 254 255 259 262 266 267 267 273 274 273 274 279 279 279
244 228 270 291 312 237 163 152 136 112 61 57 57 39 31 16 11 3 354 327 342 356 6 6 10 26 49 49 5 338 303 280 272 272 274 272 270 272 273 273 275 279 276
235 227 260 272 290 231 194 189 160 122 53 86 59 10 1 359 349 350 341 347 312 320 322 329 340 331 346 334 319 304 314 315 297 300 294 303 286 274 276 277 274 271 266
Height
11007 11010 11011 11013 11015 11016 11016 11016 11016 11016 11015 11016 11014 11012 11010 11009 11008 11005 11002 10999 10996 10992 10988 10986 10983 10980 10976 10973 10970 10968 10966 10964 10964 10965 10966 10967 10968 10969 10970 10970 10969 10968 10967
11010 11012 11013 11014 11015 11017 11018 11019 11020 11019 11019 11018 11017 11015 11013 11012 11012 11009 11006 11003 11000 10997 10994 10990 10987 10981 10977 10974 10972 10970 10965 10965 10964 10965 10965 10967 10968 10970 10971 10971 10972 10971 10970
11012 11013 11015 11015 11017 11017 11019 11020 11021 11021 11021 11021 11020 11019 11017 11016 11014 11012 11009 11007 11004 11000 10997 10994 10989 10985 10979 10974 10972 10968 10963 10962 10964 10963 10965 10966 10967 10970 10971 10973 10973 10973 10972
11013 11014 11016 11017 11018 11019 11020 11021 11022 11023 11023 11022 11022 11022 11020 11019 11017 11015 11013 11010 11007 11003 11000 10998 10993 10988 10984 10977 10972 10967 10964 10961 10962 10963 10964 10966 10966 10969 10971 10973 10974 10974 10974
11012 11014 11016 11017 11019 11020 11021 11022 11022 11023 11023 11023 11023 11022 11021 11021 11019 11017 11015 11012 11010 11007 11004 11000 10996 10992 10987 10983 10977 10968 10965 10960 10960 10962 10963 10966 10967 10969 10971 10973 10974 10975 10975
11012 11015 11016 11017 11019 11020 11022 11022 11023 11023 11024 11023 11023 11023 11021 11021 11020 11018 11016 11015 11012 11009 11006 11002 11000 10996 10991 10986 10979 10971 10965 10962 10961 10963 10963 10965 10967 10969 10971 10973 10975 10976 10976
11011 11013 11016 11017 11019 11020 11021 11023 11023 11023 11023 11023 11023 11023 11022 11021 11020 11019 11017 11016 11014 11012 11008 11007 11004 11000 10996 10990 10985 10977 10970 10966 10964 10964 10965 10966 10968 10969 10971 10973 10975 10976 10977
11008 11011 11013 11016 11017 11020 11021 11022 11023 11023 11022 11022 11022 11023 11022 11021 11019 11019 11018 11017 11016 11013 11012 11009 11006 11003 11000 10995 10989 10983 10976 10971 10969 10967 10967 10969 10969 10969 10972 10973 10975 10976 10978
11006 11008 11010 11012 11015 11017 11018 11020 11021 11021 11021 11021 11021 11022 11021 11021 11019 11019 11019 11018 11016 11014 11012 11011 11008 11007 11003 10999 10994 10990 10982 10978 10973 10970 10970 10972 10971 10971 10972 10974 10975 10977 10978
11002 11004 11006 11009 11012 11014 11016 11016 11018 11019 11018 11018 11019 11020 11019 11020 11019 11019 11018 11018 11018 11015 11013 11012 11010 11008 11006 11003 10998 10993 10989 10985 10980 10975 10973 10972 10974 10973 10973 10974 10975 10977 10978
10999 11001 11003 11005 11008 11010 11012 11013 11014 11015 11016 11015 11016 11018 11019 11018 11018 11017 11017 11017 11017 11016 11014 11012 11011 11009 11007 11004 11002 10998 10993 10990 10986 10982 10977 10975 10974 10975 10975 10975 10976 10977 10978
10993 10996 10999 11000 11003 11005 11008 11009 11010 11011 11013 11011 11012 11013 11015 11016 11016 11015 11015 11015 11015 11014 11014 11013 11012 11010 11009 11007 11003 11001 10997 10994 10991 10987 10983 10980 10978 10977 10977 10976 10976 10977 10977
10988 10990 10993 10994 10997 10999 11002 11003 11005 11006 11007 11007 11008 11009 11010 11011 11012 11012 11012 11013 11013 11012 11012 11012 11011 11010 11009 11007 11004 11002 10999 10997 10994 10991 10988 10984 10982 10981 10980 10979 10978 10978 10977
10983 10985 10987 10989 10991 10993 10994 10998 10999 11001 11004 11003 11004 11004 11006 11007 11007 11008 11008 11010 11010 11009 11009 11008 11008 11007 11006 11006 11004 11002 11000 10998 10996 10994 10991 10990 10987 10984 10983 10981 10980 10979 10978
10978 10979 10982 10984 10986 10987 10989 10992 10993 10995 10997 10998 11000 11002 11001 11002 11003 11004 11004 11004 11005 11005 11005 11003 11004 11004 11004 11003 11003 11002 11000 10998 10997 10995 10994 10992 10991 10988 10986 10984 10983 10982 10981
10973 10973 10975 10978 10980 10982 10984 10986 10988 10989 10991 10992 10993 10994 10996 10997 10996 10997 10998 10999 10999 11000 10999 10998 10999 11000 11000 11000 11000 11001 11000 10997 10997 10995 10994 10994 10992 10991 10990 10988 10986 10986 10985
10967 10967 10968 10971 10974 10976 10977 10979 10982 10984 10985 10987 10987 10987 10989 10990 10990 10989 10990 10991 10992 10992 10993 10992 10993 10993 10994 10995 10996 10997 10997 10996 10995 10996 10993 10992 10992 10992 10991 10990 10989 10988 10987
10961 10962 10962 10963 10966 10968 10970 10973 10975 10976 10976 10979 10981 10981 10982 10982 10982 10982 10981 10982 10983 10983 10983 10985 10986 10987 10987 10988 10989 10991 10993 10994 10992 10993 10993 10991 10990 10991 10990 10990 10989 10989 10988
10955 10957 10958 10958 10959 10961 10962 10965 10968 10969 10969 10971 10972 10973 10973 10973 10973 10971 10971 10972 10973 10973 10973 10973 10975 10976 10978 10980 10982 10983 10985 10987 10988 10988 10988 10988 10988 10988 10988 10988 10988 10988 10987
10951 10950 10951 10953 10954 10956 10957 10959 10960 10960 10961 10963 10962 10962 10963 10962 10963 10962 10961 10960 10960 10959 10959 10959 10960 10963 10966 10968 10974 10978 10976 10979 10981 10983 10983 10984 10985 10985 10985 10984 10984 10984 10984
10947 10949 10947 10947 10948 10949 10951 10953 10955 10956 10956 10958 10958 10957 10957 10958 10958 10956 10954 10952 10950 10946 10945 10945 10947 10949 10953 10957 10960 10965 10968 10970 10972 10974 10976 10977 10978 10979 10979 10979 10979 10979 10978
10940 10941 10943 10944 10942 10945 10948 10949 10950 10951 10952 10953 10952 10951 10951 10951 10951 10950 10948 10947 10944 10940 10936 10934 10934 10937 10943 10947 10950 10954 10958 10962 10964 10965 10966 10968 10970 10971 10971 10971 10970 10970 10970
10934 10936 10938 10938 10940 10940 10941 10942 10941 10943 10946 10948 10945 10945 10947 10947 10947 10946 10946 10944 10942 10939 10936 10933 10931 10931 10934 10939 10944 10946 10950 10953 10954 10956 10959 10959 10958 10959 10959 10960 10960 10960 10960
10927 10933 10935 10935 10935 10935 10935 10936 10936 10939 10941 10941 10940 10941 10942 10943 10944 10946 10946 10944 10941 10939 10939 10938 10935 10932 10933 10934 10937 10940 10943 10946 10947 10948 10950 10951 10948 10950 10949 10948 10948 10949 10949
10920 10927 10928 10931 10932 10933 10933 10931 10931 10934 10937 10937 10937 10940 10940 10941 10942 10942 10942 10943 10942 10942 10938 10937 10937 10935 10932 10932 10935 10936 10938 10939 10941 10942 10940 10940 10940 10939 10940 10940 10937 10938 10937
10915 10916 10919 10925 10926 10930 10926 10925 10927 10928 10933 10934 10934 10937 10941 10941 10942 10941 10939 10939 10939 10940 10940 10938 10936 10936 10936 10936 10936 10933 10933 10937 10937 10936 10931 10929 10930 10928 10929 10929 10927 10927 10927